Location: Unspecified
(0.0000°N, 0.0000°E)
Time: 06:52:10
(UTC+00:00)

Hubble Space Telescope - Pass Details

Date: 19 April 2019
Orbit: 537 x 540 km, 28.5° (Epoch: 19 April)

Event Time Altitude Azimuth Distance (km) Brightness Sun altitude
Exits shadow 03:57:55 17° 25° (NNE) 1,378 3.2 -29.7°
Drops below altitude 10° 03:59:08 10° 35° (NE) 1,781 4.0 -29.4°
Sets 04:01:33 0° 45° (NE) 2,670 5.2 -28.8°
